Weather History for Craig, CO

Change the Weather History Date:

Monday, June 18, 2012

  Actual Average Record
Temperature  
Mean Temperature 67 °F 60 °F  
Max Temperature 92 °F 80 °F 92 °F (2012)
Min Temperature 42 °F 41 °F 30 °F (2000)
Degree Days  
Heating Degree Days 0 5  
Month to date heating degree days 54 134  
Since 1 June heating degree days 54 134  
Since 1 July heating degree days 7408 8593  
Cooling Degree Days 2 0  
Month to date cooling degree days 10 0  
Year to date cooling degree days 10 0  
Since 1 June cooling degree days 10 0  
Growing Degree Days 16 (Base 50)    
Moisture  
Dew Point 23 °F    
Average Humidity 36    
Maximum Humidity 65    
Minimum Humidity 6    
Precipitation  
Precipitation 0.00 in 0.04 in 0.09 in (2004)
Month to date precipitation 0.11 0.90  
Year to date precipitation 1.54 7.09  
Sea Level Pressure  
Sea Level Pressure 29.63 in    
Wind  
Wind Speed 11 mph (SSW)    
Max Wind Speed 28 mph    
Max Gust Speed 39 mph    
Visibility 10 miles    
Events      
T = Trace of Precipitation, MM = Missing Value Source: NWS Daily Summary

Daily Weather History Graph

Daily Weather History Graph

Search for Another Location

Airport:

Trip Planner

Search our weather history database for the weather conditions in past years. The results will help you decide how hot, cold, wet, or windy it might be!

Date:

Astronomy

Jun. 18, 2012 Rise Set
Actual Time 5:39 AM MDT 8:43 PM MDT
Civil Twilight 5:06 AM MDT 9:16 PM MDT
Nautical Twilight 4:23 AM MDT 9:59 PM MDT
Astronomical Twilight 3:33 AM MDT 10:48 PM MDT
Moon 4:56 AM MDT (6/18) 8:04 PM MDT (6/18)
Length of Visible Light 16h 10m
Length of Day
15h 04m
Waning Crescent, 1% of the Moon is Illuminated
Jun 18
Waning Crescent
Jun 19
New
Jun 26
First Quarter
Jul 3
Full
Jul 10
Last Quarter

Hourly Weather History & Observations

Time (MDT) Temp. Windchill Dew Point Humidity Pressure Visibility Wind Dir Wind Speed Gust Speed Precip Events Conditions
12:53 AM 52.0 °F - 34.0 °F 50% 29.67 in 10.0 mi Calm Calm - N/A   Clear
1:53 AM 53.1 °F - 34.0 °F 48% 29.66 in 10.0 mi East 3.5 mph - N/A   Clear
2:53 AM 48.9 °F - 34.0 °F 56% 29.67 in 10.0 mi ESE 4.6 mph - N/A   Clear
3:53 AM 45.0 °F 42.6 °F 33.1 °F 63% 29.67 in 10.0 mi ESE 4.6 mph - N/A   Clear
4:53 AM 46.0 °F - 33.1 °F 61% 29.68 in 10.0 mi Calm Calm - N/A   Clear
5:53 AM 44.1 °F - 32.0 °F 63% 29.70 in 10.0 mi Calm Calm - N/A   Clear
6:53 AM 48.9 °F - 34.0 °F 56% 29.71 in 10.0 mi SE 3.5 mph - N/A   Clear
7:53 AM 57.9 °F - 37.0 °F 46% 29.70 in 10.0 mi East 3.5 mph - N/A   Clear
8:53 AM 68.0 °F - 36.0 °F 31% 29.69 in 10.0 mi Calm Calm - N/A   Clear
9:53 AM 82.0 °F - 15.1 °F 8% 29.65 in 10.0 mi West 19.6 mph 27.6 mph N/A   Clear
10:53 AM 84.0 °F - 12.9 °F 7% 29.67 in 10.0 mi West 23.0 mph 28.8 mph N/A   Clear
11:53 AM 86.0 °F - 15.1 °F 7% 29.65 in 10.0 mi WSW 20.7 mph 34.5 mph N/A   Clear
12:53 PM 89.1 °F - 16.0 °F 7% 29.64 in 10.0 mi WSW 12.7 mph 29.9 mph N/A   Clear
1:53 PM 90.0 °F - 16.0 °F 7% 29.61 in 10.0 mi West 20.7 mph 32.2 mph N/A   Clear
2:53 PM 91.0 °F - 15.1 °F 6% 29.58 in 10.0 mi WSW 11.5 mph 33.4 mph N/A   Clear
3:37 PM 91.4 °F - 17.6 °F 7% 29.81 in 10.0 mi SW 27.6 mph 35.7 mph N/A   Clear
3:53 PM 91.0 °F - 16.0 °F 6% 29.58 in 10.0 mi SW 15.0 mph 31.1 mph N/A   Clear
4:53 PM 90.0 °F - 17.1 °F 7% 29.57 in 10.0 mi WSW 21.9 mph 31.1 mph N/A   Clear
5:53 PM 88.0 °F - 17.1 °F 7% 29.57 in 10.0 mi SW 18.4 mph 31.1 mph N/A   Clear
6:53 PM 86.0 °F - 19.0 °F 8% 29.55 in 10.0 mi SSW 16.1 mph 26.5 mph N/A   Clear
7:53 PM 82.9 °F - 19.0 °F 9% 29.54 in 10.0 mi SSW 17.3 mph - N/A   Clear
8:53 PM 77.0 °F - 19.0 °F 11% 29.53 in 10.0 mi South 11.5 mph - N/A   Clear
9:53 PM 73.9 °F - 18.0 °F 12% 29.51 in 10.0 mi South 13.8 mph - N/A   Clear
10:53 PM 75.0 °F - 18.0 °F 12% 29.50 in 10.0 mi South 11.5 mph - N/A   Clear
11:53 PM 64.0 °F - 21.9 °F 20% 29.55 in 10.0 mi Calm Calm - N/A   Clear